Regional Weather Roundup
Issued by NWS

Home | Current Version | Previous Version | Text Only | Print | Product List | Glossary Off
Versions: 1 2 3 4 5 6 7 8 9 10 11 12 13 14 15 16 17 18 19 20 21 22 23 24 25 26 27 28 29 30 31 32 33 34 35 36 37 38 39 40 41 42 43 44 45 46 47 48 49 50

000
ASUS43 KDTX 232110
RWRMI
MICHIGAN HOURLY REGIONAL WEATHER ROUNDUP
NATIONAL WEATHER SERVICE DETROIT/PONTIAC MI
ISSUED BY NATIONAL WEATHER SERVICE GRAND RAPIDS MI
500 PM EDT FRI JUN 23 2017

NOTE: "FAIR" INDICATES FEW OR NO CLOUDS BELOW 12,000 FEET WITH NO
SIGNIFICANT WEATHER AND/OR OBSTRUCTION TO VISIBILITY.

MIZ047>049-052>055-059>063-066>070-074>076-081>083-232200-
SOUTHEAST LOWER MICHIGAN

CITY           SKY/WX    TMP DP  RH WIND       PRES   REMARKS
ADRIAN         CLOUDY    74  65  73 NW8       29.65S
ALMA           CLOUDY    76  56  50 W13G18    29.64S
ANN ARBOR      CLOUDY    75  65  70 W13       29.63R
BAD AXE        PTSUNNY   74  63  67 NW10G16   29.60S
DETROIT CITY   CLOUDY    77  65  66 W7        29.60R
DETROIT        CLOUDY    77  67  71 W10       29.62R
FLINT          CLOUDY    76  63  64 NW13      29.62S
GROSSE ILE     CLOUDY    75  66  71 NW9       29.60S
HILLSDALE      CLOUDY    72  61  68 W12       29.67S
HOWELL         CLOUDY    75  61  61 W9        29.64S

CITY           SKY/WX    TMP DP  RH WIND       PRES   REMARKS
JACKSON        CLOUDY    75  63  66 NW10      29.66S
LANSING        CLOUDY    78  59  51 W10       29.65S
MASON          CLOUDY    75  61  61 W13       29.66R
MONROE         CLOUDY    75  69  81 W8        29.61S
MT. CLEMENS    PTSUNNY   76  68  75 NW14      29.58R
PONTIAC        CLOUDY    75  65  70 W10       29.61S
PORT HOPE        N/A     72  67  84 CALM      29.58R
PORT HURON     CLOUDY    73  66  78 NW6       29.60R
TRI CITIES     CLOUDY    78  60  53 NW10      29.61F
YPSILANTI      CLOUDY    78  67  68 NW10      29.63R
$$
MIZ043>046-050>051-056>058-064>065-071>073-077>080-232200-
SOUTHWEST LOWER MICHIGAN

CITY           SKY/WX    TMP DP  RH WIND       PRES   REMARKS
BATTLE CREEK   CLOUDY    75  59  57 NW16G22   29.70R
BENTON HARBOR  CLOUDY    72  58  61 W5        29.72R
BIG RAPIDS     CLOUDY    75  39  27 NW12G23   29.65S
COLDWATER      CLOUDY    74  59  59 W12       29.68S
HOLLAND        PTSUNNY   76  59  55 NW9       29.70R
GRAND RAPIDS   PTSUNNY   76  53  44 NW13      29.67R
KALAMAZOO      PTSUNNY   77  56  48 NW15      29.70R
MARSHALL       CLOUDY    75  60  60 W10G17    29.67S
MOUNT PLEASANT MOSUNNY   75  49  39 NW9       29.63R
MUSKEGON       SUNNY     77  55  46 VRB5      29.68R
STURGIS        CLOUDY    73  61  66 NW6       29.70R
$$
MIZ016>042-232200-
NORTHERN LOWER MICHIGAN

CITY           SKY/WX    TMP DP  RH WIND       PRES   REMARKS
ALPENA         SUNNY     79  43  27 W13G20    29.58S
BEAVER ISLAND  MOSUNNY   73  56  54 SW15      29.59F
BELLAIRE       SUNNY     76  42  29 W8        29.62S
CADILLAC       SUNNY     75  40  28 NW15G25   29.65S
CHARLEVOIX     SUNNY     74  48  39 SW13G20   29.64S
GAYLORD        SUNNY     75  37  25 W14G20    29.62F
HOUGHTON LAKE  SUNNY     76  42  29 NW12      29.63S
MANISTEE       SUNNY     77  52  41 W7        29.64S
OSCODA         PTSUNNY   72  63  74 SE7       29.58S
PELLSTON       SUNNY     76  44  32 W10       29.59F
TRAVERSE CITY  MOSUNNY   79  42  26 W13G20    29.60S
LUDINGTON      CLOUDY    73  58  59 SW8       29.65S
$$
MIZ007>008-015-232200-
EASTERN UPPER MICHIGAN

CITY           SKY/WX    TMP DP  RH WIND       PRES   REMARKS
KINROSS        LGT RAIN  64  55  72 N7        29.60R
MACKINAC ISLAN PTSUNNY   67  56  67 SW10G16   29.58F
NEWBERRY       HAZE      67  47  48 N12G18    29.62R VSB 1
S. S. MARIE    MOSUNNY   70  51  51 NW14G25   29.59R
$$
MIZ004>006-011>014-085-232200-
CENTRAL UPPER MICHIGAN

CITY           SKY/WX    TMP DP  RH WIND       PRES   REMARKS
MANISTIQUE     PTSUNNY   71  48  43 N13G18    29.60S
ESCANABA       MOSUNNY   77  49  37 W16G23    29.59S
MENOMINEE      MOSUNNY   75  51  43 VRB6      29.62R
SAWYER-GWINN   MOSUNNY   72  48  43 NW16G24   29.63R
$$
MIZ001>003-009>011-084-232200-
WESTERN UPPER MICHIGAN

CITY           SKY/WX    TMP DP  RH WIND       PRES   REMARKS
IRON MOUNTAIN  PTSUNNY   71  45  39 NW15G26   29.63R
HOUGHTON       CLOUDY    65  48  54 W20G31    29.63S
COPPER HARBOR    N/A     66  49  54 NW17G26   29.61S
IRONWOOD       CLOUDY    65  49  56 NW16      29.71R
$$

ABBREVIATIONS USED IN REMARKS
   TC - TEMPERATURE IN CELSIUS
  WCI - WIND CHILL INDEX
   HX - HEAT INDEX
  VSB - VISIBILITY





USA.gov is the U.S. government's official web portal to all federal, state and local government web resources and services.